| time (UTC) | temp F | wind direction | speed knots | gust knots | rain 1hr in | rain 24hr in | rain mn in | humidity % | barometer mb |
| 20260503233023 | 53 | 242 | 6.1 | 17.4 | 0.00 | 0.00 | 0.00 | 68 | 1013.3 |
| 20260503231524 | 54 | 217 | 7.8 | 17.4 | 0.00 | 0.00 | 0.00 | 68 | 1013.3 |
| 20260503230022 | 55 | 241 | 11.3 | 20.9 | 0.00 | 0.00 | 0.00 | 66 | 1013.2 |
| 20260503224522 | 58 | 253 | 13.9 | 20.9 | 0.00 | 0.00 | 0.00 | 60 | 1013.0 |
| 20260503223021 | 59 | 360 | 7.8 | 13.9 | 0.00 | 0.00 | 0.00 | 49 | 1012.9 |
| 20260503221520 | 59 | 360 | 8.7 | 14.8 | 0.00 | 0.00 | 0.00 | 49 | 1013.0 |
| 20260503220020 | 59 | 360 | 6.1 | 17.4 | 0.00 | 0.00 | 0.00 | 49 | 1013.0 |
| 20260503214519 | 60 | 360 | 7.8 | 17.4 | 0.00 | 0.00 | 0.00 | 48 | 1013.0 |
| 20260503213018 | 60 | 246 | 7.8 | 16.5 | 0.00 | 0.00 | 0.00 | 49 | 1013.2 |
| 20260503211523 | 60 | 360 | 7.0 | 16.5 | 0.00 | 0.00 | 0.00 | 49 | 1013.2 |
| 20260503210017 | 60 | 360 | 8.7 | 17.4 | 0.00 | 0.00 | 0.00 | 47 | 1013.3 |
| 20260503204514 | 60 | 360 | 8.7 | 17.4 | 0.00 | 0.00 | 0.00 | 49 | 1013.4 |
| 20260503203014 | 60 | 360 | 10.4 | 20.0 | 0.00 | 0.00 | 0.00 | 49 | 1013.5 |
| 20260503201513 | 60 | 360 | 13.0 | 20.9 | 0.00 | 0.00 | 0.00 | 47 | 1013.7 |
| 20260503200011 | 61 | 223 | 7.0 | 17.4 | 0.00 | 0.00 | 0.00 | 48 | 1013.8 |
| 20260503194510 | 60 | 277 | 7.0 | 18.2 | 0.00 | 0.00 | 0.00 | 47 | 1014.0 |
| 20260503193008 | 61 | 222 | 7.0 | 20.0 | 0.00 | 0.00 | 0.00 | 48 | 1014.1 |
| 20260503191507 | 61 | 221 | 7.0 | 20.0 | 0.00 | 0.00 | 0.00 | 48 | 1014.4 |
| 20260503190020 | 61 | 360 | 7.0 | 19.1 | 0.00 | 0.00 | 0.00 | 45 | 1014.7 |
| 20260503184508 | 61 | 360 | 7.0 | 23.5 | 0.00 | 0.00 | 0.00 | 47 | 1014.8 |
| 20260503183005 | 61 | 245 | 7.8 | 15.6 | 0.00 | 0.00 | 0.00 | 48 | 1014.8 |
| 20260503181501 | 61 | 360 | 6.1 | 18.2 | 0.00 | 0.00 | 0.00 | 48 | 1015.1 |
| 20260503180002 | 61 | 360 | 7.8 | 15.6 | 0.00 | 0.00 | 0.00 | 48 | 1015.2 |
| 20260503174558 | 61 | 360 | 5.2 | 19.1 | 0.00 | 0.00 | 0.00 | 50 | 1015.3 |
| 20260503173112 | 60 | 275 | 5.2 | 19.1 | 0.00 | 0.00 | 0.00 | 53 | 1015.4 |
| 20260503171554 | 60 | 360 | 8.7 | 19.1 | 0.00 | 0.00 | 0.00 | 51 | 1015.7 |
| 20260503081539 | 36 | 360 | 0.9 | 3.5 | 0.00 | 0.00 | 0.00 | 79 | 1017.7 |
| 20260503080129 | 36 | 360 | 1.7 | 3.5 | 0.00 | 0.00 | 0.00 | 78 | 1017.7 |
| 20260503071528 | 36 | 360 | 0.9 | 3.5 | 0.00 | 0.00 | 0.00 | 78 | 1017.8 |
| 20260503054525 | 37 | 360 | 0.0 | 2.6 | 0.00 | 0.00 | 0.00 | 78 | 1018.3 |
| 20260503053021 | 37 | 360 | 0.0 | 3.5 | 0.00 | 0.00 | 0.00 | 77 | 1018.4 |
| 20260503051515 | 37 | 360 | 0.0 | 2.6 | 0.00 | 0.00 | 0.00 | 77 | 1018.3 |
| 20260503050013 | 38 | 360 | 0.9 | 4.3 | 0.00 | 0.00 | 0.00 | 76 | 1018.3 |
| 20260503044514 | 38 | 360 | 0.9 | 3.5 | 0.00 | 0.00 | 0.00 | 75 | 1018.3 |
| 20260503043012 | 38 | 360 | 0.9 | 2.6 | 0.00 | 0.00 | 0.00 | 75 | 1018.2 |
| 20260503041517 | 39 | 360 | 0.0 | 2.6 | 0.00 | 0.00 | 0.00 | 76 | 1018.3 |
| 20260503040012 | 39 | 360 | 0.9 | 2.6 | 0.00 | 0.00 | 0.00 | 75 | 1018.3 |
| 20260503034512 | 40 | 360 | 0.9 | 2.6 | 0.00 | 0.00 | 0.00 | 75 | 1018.3 |
| 20260503033020 | 40 | 360 | 0.9 | 3.5 | 0.00 | 0.00 | 0.00 | 75 | 1018.4 |
| 20260503031510 | 41 | 360 | 0.0 | 2.6 | 0.00 | 0.00 | 0.00 | 78 | 1018.5 |
| 20260503030010 | 41 | 242 | 0.9 | 2.6 | 0.00 | 0.00 | 0.00 | 78 | 1018.5 |
| 20260503024513 | 41 | 255 | 0.0 | 1.7 | 0.00 | 0.00 | 0.00 | 77 | 1018.6 |
| 20260503023008 | 42 | 360 | 0.0 | 1.7 | 0.00 | 0.00 | 0.00 | 75 | 1018.7 |
| 20260503021509 | 42 | 257 | 0.0 | 0.9 | 0.00 | 0.00 | 0.00 | 74 | 1018.8 |
| 20260503020008 | 42 | 257 | 0.0 | 0.0 | 0.00 | 0.00 | 0.00 | 72 | 1018.7 |
| 20260503014508 | 42 | 257 | 0.0 | 0.0 | 0.00 | 0.00 | 0.00 | 72 | 1018.5 |
| 20260503013007 | 43 | 257 | 0.0 | 1.7 | 0.00 | 0.00 | 0.00 | 71 | 1018.6 |
| 20260503011508 | 43 | 360 | 0.9 | 1.7 | 0.00 | 0.00 | 0.00 | 69 | 1018.5 |
| 20260503010008 | 44 | 360 | 0.9 | 1.7 | 0.00 | 0.00 | 0.00 | 66 | 1018.4 |
| 20260503004520 | 44 | 258 | 0.9 | 2.6 | 0.00 | 0.00 | 0.00 | 68 | 1018.4 |
| 20260503003005 | 44 | 257 | 1.7 | 4.3 | 0.00 | 0.00 | 0.00 | 64 | 1018.4 |
| 20260503001504 | 45 | 269 | 1.7 | 5.2 | 0.00 | 0.00 | 0.00 | 64 | 1018.3 |
| 20260503000004 | 45 | 288 | 3.5 | 7.8 | 0.00 | 0.02 | 0.00 | 63 | 1018.2 |
| 20260502234505 | 45 | 360 | 4.3 | 8.7 | 0.00 | 0.02 | 0.00 | 61 | 1018.2 |